Regional Weather Roundup
Issued by NWS Goodland, KS

Home | Current Version | Previous Version | Text Only | Print | Product List | Glossary Off
Versions: 1 2 3 4 5 6 7 8 9 10 11 12 13 14 15 16 17 18 19 20 21 22 23 24 25 26 27 28 29 30 31 32 33 34 35 36 37 38 39 40 41 42 43 44 45 46 47 48 49 50

000
ASUS43 KGLD 031259
RWRGLD

GOODLAND FORECAST AREA HOURLY WEATHER ROUNDUP
NATIONAL WEATHER SERVICE GOODLAND KS
700 AM MDT SUN MAY 03 2015

...OFFICIAL OBSERVATIONS...

CITY           SKY/WX    TMP DP  RH WIND       PRES   REMARKS
GOODLAND KS    SUNNY     56  45  66 W10       29.86R
HILL CITY KS   MOSUNNY   58  50  75 CALM      29.81R
IMPERIAL NEB   SUNNY     56  44  64 W12       29.81R
MCCOOK NEB     SUNNY     55  46  71 S9        29.81R
AKRON CO       SUNNY     54  43  66 W12       29.89R
BURLINGTON CO  SUNNY     54  43  66 W10       29.88R
LIMON CO       SUNNY     52  40  63 W14       29.94R
$$

...UNOFFICIAL OBSERVATIONS...

CITY           SKY/WX    TMP DP  RH WIND       PRES   REMARKS
COLBY KS       SUNNY     57  48  72 SW8       29.85R
GOVE KS          N/A     53  32  45 MISG        N/A
LENORA KS        N/A     61  32  33 MISG        N/A
NORTON KS      SUNNY     59  45  58 SW9       29.80R
SHARON SPRINGS   N/A     53  47  80 MISG        N/A
KIT CARSON CO    N/A     49  43  80 MISG        N/A
YUMA CO          N/A     49  44  84 W5          N/A
$$



USA.gov is the U.S. government's official web portal to all federal, state and local government web resources and services.